Overview Statistics Trail Chart Weather Telemetry Raw packets
 

This is the latest recevied weather packets stored in our database for station/object LRTR. If no packets are shown the sender has not sent any weather packets the latest 10 day(s).

<< 22 23 24 25 26 27 28 >>
Time Temp. Humidity Pressure Rain* Wind** Luminosity Snow
1777209485 21.11° C 25% 1016 hPa - - - -
1777208585 21.11° C 25% 1016 hPa - - - -
1777205905 21.11° C 17% 1015 hPa - - - -
1777204985 21.11° C 17% 1015 hPa - - - -
1777204085 22.22° C 22% 1015 hPa - - - -
1777203243 22.22° C 22% 1015 hPa - - - -
1777199586 22.22° C 17% 1015 hPa - - - -
1777198685 22.22° C 19% 1015 hPa - - - -
1777197785 22.22° C 19% 1015 hPa - - - -
1777196886 21.11° C 23% 1014 hPa - - - -
1777195985 21.11° C 23% 1014 hPa - - - -
1777195085 21.11° C 20% 1014 hPa - - - -
1777194186 21.11° C 20% 1014 hPa - - - -
1777193286 21.11° C 27% 1014 hPa - - - -
1777192385 21.11° C 27% 1014 hPa - - - -
1777191497 20° C 33% 1014 hPa - - - -
1777190585 20° C 33% 1014 hPa - - - -
1777189685 18.89° C 35% 1014 hPa - - - -
1777188785 18.89° C 35% 1014 hPa - - - -
1777187886 17.22° C 45% 1014 hPa - - - -
1777186985 17.22° C 45% 1014 hPa - - - -
1777186085 15° C 55% 1014 hPa - - - -
1777185185 15° C 55% 1014 hPa - - - -
1777184285 12.22° C 67% 1014 hPa - - - -
1777183386 12.22° C 67% 1014 hPa - - - -

* Rain since midnight (hover to see other rain measurements)
** Current wind speed in m/s (hover to see current wind gust speed)